Terminal Aerodrome Forecast
Issued by NWS

Home | Current Version | Previous Version | Text Only | Print | Product List | Glossary On
Versions: 1 2 3 4 5 6 7 8 9 10 11 12 13 14 15 16 17 18 19 20 21 22 23 24 25 26 27 28 29 30 31 32 33 34 35 36 37 38 39
000
FTUS41 KBOX 021720
TAFACK
TAF
KACK 021720Z 0218/0318 20006KT P6SM BKN200
     FM022100 20007KT P6SM OVC100
     FM030100 VRB03KT 4SM -SHRA BR OVC030
     FM030900 32004KT 6SM BR BKN050
     FM031200 02005KT P6SM BKN250=

USA.gov is the U.S. government's official web portal to all federal, state and local government web resources and services.